Flag for Honduras Weather past 2 weeks in La Ceiba, Honduras

Now
79 °F

Passing clouds.


Feels Like: 81 °F
Forecast: 68 / 82 °F
Wind: 6 mph from North

Location: La Ceiba Airport

Current Time: Feb 1, 2015 at 11:21:35 AM

Latest Report: Feb 1, 2015 at 10:00 AM


Visibility: N/A

Pressure: 30.04 "Hg

Humidity: 74%

Dew point: 70 °F

Location of La CeibaLocation

Historic Weather in La Ceiba — Graph

°F

La Ceiba temperature yesterday

Maximum temperature yesterday: 73 °F (at 12:00 PM)
Minimum temperature yesterday: 68 °F (at 12:00 AM)
Average temperature yesterday: 70 °F

Past Weeks' High & Low Weather Summary

 TemperatureHumidityPressure
High86 °F (Jan 23, 1:00 PM)100% (Jan 21, 7:00 AM)30.18 "Hg (Jan 21, 7:00 AM)
Low61 °F (Jan 28, 6:00 AM)51% (Jan 20, 7:00 AM)29.89 "Hg (Jan 23, 1:00 PM)
Average73 °F86%30.04 "Hg
* Reported Jan 17 10:00 AM — Feb 1 10:00 AM, La Ceiba, Weather by CustomWeather, © 2014

Note: Actual official high and low records may vary slightly from our data, if they occured in-between our weather recording intervals... More about our weather records

Advertising

La Ceiba weather history for previous 24 hours

 ConditionsComfort  
Time TempWeatherWind HumidityBarometerVisibility
10:00 AM
Feb 1
79 °FPassing clouds.6 mph74%30.04 "HgN/A
8:00 AM66 °FPartly sunny.No wind88%30.04 "HgN/A
7:00 AM63 °FPassing clouds.No wind94%30.01 "HgN/A
6:00 AM63 °FPassing clouds.2 mph94%30.01 "HgN/A
12:00 AM68 °FPassing clouds.No wind94%30.01 "HgN/A
11:00 PM
Jan 31
68 °FPassing clouds.No wind94%30.04 "HgN/A
10:00 PM68 °FPartly cloudy.No wind94%30.04 "HgN/A
9:00 PM68 °FPartly cloudy.2 mph94%30.04 "HgN/A
8:00 PM68 °FPartly cloudy.3 mph94%30.04 "HgN/A
7:00 PM68 °FPartly cloudy.No wind94%30.01 "HgN/A
6:00 PM70 °FLight rain. Mostly cloudy.No wind88%30.04 "Hg2 mi
5:00 PM70 °FScattered showers. More clouds than sun.5 mph94%30.01 "Hg4 mi
4:00 PM70 °FDrizzle. Mostly cloudy.3 mph94%30.04 "Hg1 mi
3:00 PM72 °FDrizzle. Mostly cloudy.2 mph88%30.04 "Hg1 mi
2:00 PM72 °FLight rain. Mostly cloudy.2 mph88%30.04 "Hg1 mi
1:00 PM73 °FMore clouds than sun.2 mph83%30.07 "HgN/A
12:00 PM73 °FMore clouds than sun.5 mph78%30.09 "HgN/A
Weather by CustomWeather, © 2014

See weather overviewHow to use our weather pages